JBU1524 KLAX-KJFK

Flight info

Callsign JBU1524
Flight time 4h 50m
Altitude 35000
Route OSHNN1 BEALE Q842 WINEN MLF MTU CKW KD72U KURSE Q122 KATES DBQ KG75M DAFLU J70 JHW Q476 WLKES PUCKY1
Aircraft A20N/M-SDE2E3FGHIRWXY/LB1

Departure

Time 2026-05-05 02:42
Airport Los Angeles International Airport (KLAX)

Arrival

Time 2026-05-05 07:33
Airport John F. Kennedy International Airport (KJFK)
Time Latitude Longitude Altitude Speed Heading
2026-05-05 02:20 33.94632 -118.40186 141 ft 0 kts 98°
2026-05-05 02:34 33.94634 -118.40199 141 ft 2 kts 98°
2026-05-05 02:35 33.94636 -118.40221 141 ft 3 kts 98°
2026-05-05 02:35 33.94639 -118.40245 141 ft 3 kts 98°
2026-05-05 02:35 33.94640 -118.40251 141 ft 0 kts 98°
2026-05-05 02:36 33.94640 -118.40250 141 ft 0 kts 98°
2026-05-05 02:38 33.94644 -118.40240 141 ft 3 kts 38°
2026-05-05 02:38 33.94675 -118.40254 141 ft 7 kts 335°
2026-05-05 02:38 33.94726 -118.40267 141 ft 7 kts 352°
2026-05-05 02:38 33.94769 -118.40274 141 ft 7 kts 352°
2026-05-05 02:39 33.94823 -118.40291 141 ft 9 kts 337°
2026-05-05 02:39 33.94891 -118.40291 141 ft 11 kts 56°
2026-05-05 02:39 33.94903 -118.40219 141 ft 10 kts 79°
2026-05-05 02:39 33.94947 -118.40183 141 ft 7 kts 357°
2026-05-05 02:40 33.94991 -118.40188 141 ft 10 kts 354°
2026-05-05 02:40 33.95014 -118.40224 141 ft 4 kts 261°
2026-05-05 02:40 33.95011 -118.40246 141 ft 0 kts 263°
2026-05-05 02:41 33.95011 -118.40248 141 ft 2 kts 263°
2026-05-05 02:41 33.94988 -118.40475 141 ft 57 kts 263°
2026-05-05 02:41 33.94916 -118.41180 141 ft 111 kts 263°
2026-05-05 02:42 33.94802 -118.42294 143 ft 155 kts 263°
2026-05-05 02:42 33.94667 -118.43650 548 ft 165 kts 264°
2026-05-05 02:42 33.94550 -118.45015 1331 ft 163 kts 262°
2026-05-05 02:42 33.94408 -118.46381 1980 ft 171 kts 261°
2026-05-05 02:43 33.94305 -118.47894 2287 ft 191 kts 265°
2026-05-05 02:43 33.94069 -118.49567 2593 ft 212 kts 248°
2026-05-05 02:43 33.93188 -118.51089 3084 ft 232 kts 224°
2026-05-05 02:43 33.91773 -118.52087 3819 ft 243 kts 201°
2026-05-05 02:44 33.90074 -118.52348 4654 ft 252 kts 179°
2026-05-05 02:44 33.88316 -118.52154 5449 ft 259 kts 179°
2026-05-05 02:44 33.86507 -118.52072 6335 ft 262 kts 182°
2026-05-05 02:44 33.84672 -118.52082 7231 ft 266 kts 183°
2026-05-05 02:45 33.82809 -118.52093 8076 ft 270 kts 182°
2026-05-05 02:45 33.80890 -118.52044 8889 ft 275 kts 181°
2026-05-05 02:45 33.78959 -118.51961 9678 ft 279 kts 181°
2026-05-05 02:45 33.77011 -118.51895 10406 ft 287 kts 180°
2026-05-05 02:46 33.74957 -118.51698 10746 ft 307 kts 177°
2026-05-05 02:46 33.72769 -118.51374 11025 ft 328 kts 175°
2026-05-05 02:46 33.70578 -118.50487 11651 ft 340 kts 153°
2026-05-05 02:46 33.68823 -118.48550 12370 ft 351 kts 128°
2026-05-05 02:47 33.67814 -118.45800 13030 ft 362 kts 107°
2026-05-05 02:47 33.67175 -118.42890 13493 ft 371 kts 109°
2026-05-05 02:47 33.66355 -118.39894 14091 ft 375 kts 112°
2026-05-05 02:47 33.65469 -118.36951 14688 ft 378 kts 111°
2026-05-05 02:48 33.64792 -118.33885 15307 ft 384 kts 104°
2026-05-05 02:48 33.64485 -118.30633 15894 ft 391 kts 95°
2026-05-05 02:48 33.64465 -118.27347 16413 ft 398 kts 92°
2026-05-05 02:48 33.64467 -118.24012 16943 ft 402 kts 92°
2026-05-05 02:49 33.64596 -118.20643 17494 ft 409 kts 82°
2026-05-05 02:49 33.65546 -118.17431 18022 ft 415 kts 61°
2026-05-05 02:49 33.67365 -118.14749 18403 ft 419 kts 39°
2026-05-05 02:49 33.69758 -118.12746 18896 ft 421 kts 31°
2026-05-05 02:50 33.72177 -118.10758 19410 ft 425 kts 32°
2026-05-05 02:50 33.74595 -118.08670 19898 ft 430 kts 33°
2026-05-05 02:50 33.77055 -118.06507 20360 ft 436 kts 33°
2026-05-05 02:50 33.79500 -118.04347 20808 ft 440 kts 33°
2026-05-05 02:51 33.81762 -118.02340 21209 ft 444 kts 33°
2026-05-05 02:51 33.84251 -118.00129 21628 ft 449 kts 33°
2026-05-05 02:51 33.86794 -117.97867 22050 ft 453 kts 33°
2026-05-05 02:51 33.89339 -117.95594 22472 ft 457 kts 33°
2026-05-05 02:52 33.91066 -117.94046 22735 ft 459 kts 34°
2026-05-05 02:52 33.93630 -117.91726 23116 ft 463 kts 34°
2026-05-05 02:52 33.96211 -117.89379 23480 ft 468 kts 34°
2026-05-05 02:52 33.98807 -117.87013 23843 ft 472 kts 34°
2026-05-05 02:53 34.01244 -117.84788 24184 ft 474 kts 34°
2026-05-05 02:53 34.03877 -117.82398 24584 ft 476 kts 34°
2026-05-05 02:53 34.06546 -117.79981 24889 ft 481 kts 34°
2026-05-05 02:53 34.09217 -117.77549 25191 ft 485 kts 37°
2026-05-05 02:54 34.11665 -117.74730 25521 ft 489 kts 46°
2026-05-05 02:54 34.13914 -117.71564 25762 ft 494 kts 50°
2026-05-05 02:54 34.16070 -117.68330 26026 ft 498 kts 51°
2026-05-05 02:54 34.18228 -117.65045 26289 ft 501 kts 52°
2026-05-05 02:55 34.20382 -117.61730 26545 ft 504 kts 52°
2026-05-05 02:55 34.22553 -117.58399 26784 ft 507 kts 52°
2026-05-05 02:55 34.24746 -117.55041 27017 ft 511 kts 52°
2026-05-05 02:55 34.26952 -117.51677 27254 ft 514 kts 52°
2026-05-05 02:56 34.29211 -117.48238 27508 ft 517 kts 52°
2026-05-05 02:56 34.31424 -117.44878 27743 ft 520 kts 52°
2026-05-05 02:56 34.33705 -117.41413 27973 ft 523 kts 52°
2026-05-05 02:56 34.35979 -117.37961 28185 ft 526 kts 52°
2026-05-05 02:57 34.38264 -117.34496 28406 ft 529 kts 52°
2026-05-05 02:57 34.40559 -117.31022 28619 ft 531 kts 52°
2026-05-05 02:57 34.42874 -117.27517 28821 ft 534 kts 52°
2026-05-05 02:57 34.45196 -117.24005 29025 ft 537 kts 52°
2026-05-05 02:58 34.47539 -117.20473 29218 ft 539 kts 52°
2026-05-05 02:58 34.49886 -117.16935 29408 ft 542 kts 52°
2026-05-05 02:58 34.52250 -117.13370 29599 ft 544 kts 52°
2026-05-05 02:58 34.54631 -117.09788 29761 ft 547 kts 52°
2026-05-05 02:59 34.57042 -117.06215 29940 ft 549 kts 52°
2026-05-05 02:59 34.59512 -117.02595 30111 ft 552 kts 52°
2026-05-05 02:59 34.61963 -116.99008 30285 ft 554 kts 52°
2026-05-05 02:59 34.64420 -116.95416 30481 ft 555 kts 52°
2026-05-05 03:00 34.66886 -116.91808 30677 ft 556 kts 52°
2026-05-05 03:00 34.69352 -116.88194 30867 ft 558 kts 52°
2026-05-05 03:00 34.71829 -116.84565 31057 ft 559 kts 52°
2026-05-05 03:00 34.74307 -116.80934 31251 ft 560 kts 52°
2026-05-05 03:01 34.76791 -116.77298 31431 ft 561 kts 52°
2026-05-05 03:01 34.79287 -116.73644 31615 ft 562 kts 52°
2026-05-05 03:01 34.81816 -116.69938 31835 ft 563 kts 52°
2026-05-05 03:01 34.84307 -116.66279 32052 ft 563 kts 52°
2026-05-05 03:02 34.86827 -116.62617 32166 ft 566 kts 50°
2026-05-05 03:02 34.89431 -116.59021 32331 ft 567 kts 49°
2026-05-05 03:02 34.92077 -116.55457 32499 ft 569 kts 48°
2026-05-05 03:02 34.94774 -116.51855 32657 ft 570 kts 48°
2026-05-05 03:03 34.97454 -116.48290 32818 ft 571 kts 48°
2026-05-05 03:03 35.00138 -116.44715 32976 ft 573 kts 48°
2026-05-05 03:03 35.02819 -116.41138 33125 ft 574 kts 48°
2026-05-05 03:03 35.05508 -116.37549 33288 ft 575 kts 48°
2026-05-05 03:04 35.08204 -116.33952 33426 ft 576 kts 48°
2026-05-05 03:04 35.10912 -116.30335 33588 ft 577 kts 48°
2026-05-05 03:04 35.13619 -116.26718 33733 ft 579 kts 48°
2026-05-05 03:04 35.16364 -116.23044 33879 ft 580 kts 48°
2026-05-05 03:05 35.19084 -116.19399 34024 ft 581 kts 48°
2026-05-05 03:05 35.21797 -116.15758 34182 ft 582 kts 48°
2026-05-05 03:05 35.24519 -116.12098 34342 ft 583 kts 48°
2026-05-05 03:05 35.27241 -116.08433 34530 ft 582 kts 48°
2026-05-05 03:06 35.29956 -116.04773 34787 ft 580 kts 48°
2026-05-05 03:06 35.35420 -115.97400 34866 ft 583 kts 48°
2026-05-05 03:07 35.40859 -115.90059 34867 ft 583 kts 49°
2026-05-05 03:07 35.46300 -115.82681 34863 ft 583 kts 49°
2026-05-05 03:08 35.51725 -115.75297 34860 ft 583 kts 49°
2026-05-05 03:08 35.57054 -115.67986 34861 ft 560 kts 49°
2026-05-05 03:08 35.59596 -115.64478 34856 ft 543 kts 49°
2026-05-05 03:09 35.62107 -115.61029 34855 ft 541 kts 48°
2026-05-05 03:09 35.67160 -115.54108 34852 ft 542 kts 48°
2026-05-05 03:10 35.72185 -115.47196 34851 ft 542 kts 49°
2026-05-05 03:10 35.77155 -115.40245 34854 ft 543 kts 49°
2026-05-05 03:11 35.82147 -115.33261 34854 ft 544 kts 49°
2026-05-05 03:11 35.87189 -115.26228 34856 ft 546 kts 49°
2026-05-05 03:12 35.92267 -115.19154 34857 ft 548 kts 49°
2026-05-05 03:12 35.96842 -115.12781 34857 ft 549 kts 49°
2026-05-05 03:13 36.01915 -115.05726 34851 ft 550 kts 49°
2026-05-05 03:13 36.06986 -114.98653 34835 ft 551 kts 49°
2026-05-05 03:14 36.12118 -114.91476 34800 ft 551 kts 49°
2026-05-05 03:14 36.17430 -114.84633 34785 ft 552 kts 41°
2026-05-05 03:15 36.23632 -114.79011 34775 ft 549 kts 28°
2026-05-05 03:15 36.30288 -114.74479 34766 ft 546 kts 24°
2026-05-05 03:16 36.36700 -114.70232 34771 ft 546 kts 24°
2026-05-05 03:16 36.43413 -114.65819 34777 ft 546 kts 24°
2026-05-05 03:17 36.49956 -114.61511 34782 ft 544 kts 24°
2026-05-05 03:17 36.56675 -114.57077 34788 ft 543 kts 24°
2026-05-05 03:18 36.63258 -114.52717 34805 ft 541 kts 24°
2026-05-05 03:18 36.69945 -114.48272 34810 ft 540 kts 24°
2026-05-05 03:19 36.79669 -114.41099 34820 ft 541 kts 28°
2026-05-05 03:19 36.85985 -114.36095 34827 ft 539 kts 29°
2026-05-05 03:20 36.92324 -114.31050 34826 ft 537 kts 29°
2026-05-05 03:20 36.98616 -114.26050 34840 ft 535 kts 29°
2026-05-05 03:21 37.04842 -114.21118 34854 ft 533 kts 29°
2026-05-05 03:21 37.11173 -114.16088 34857 ft 530 kts 29°
2026-05-05 03:22 37.17373 -114.11173 34854 ft 528 kts 29°
2026-05-05 03:22 37.23591 -114.06226 34857 ft 526 kts 29°
2026-05-05 03:23 37.29721 -114.01354 34859 ft 524 kts 29°
2026-05-05 03:23 37.35896 -113.96430 34865 ft 519 kts 28°
2026-05-05 03:24 37.42000 -113.91548 34866 ft 518 kts 28°
2026-05-05 03:24 37.47092 -113.87489 34870 ft 518 kts 28°
2026-05-05 03:25 37.53225 -113.82597 34876 ft 517 kts 28°
2026-05-05 03:25 37.59290 -113.77750 34883 ft 517 kts 28°
2026-05-05 03:26 37.65370 -113.72879 34891 ft 517 kts 28°
2026-05-05 03:26 37.71464 -113.67986 34900 ft 517 kts 28°
2026-05-05 03:27 37.77516 -113.63116 34918 ft 517 kts 28°
2026-05-05 03:27 37.83590 -113.58219 34919 ft 517 kts 29°
2026-05-05 03:28 37.89695 -113.53286 34913 ft 518 kts 29°
2026-05-05 03:28 37.95674 -113.48192 34909 ft 521 kts 36°
2026-05-05 03:29 38.01109 -113.42125 34911 ft 525 kts 40°
2026-05-05 03:29 38.06522 -113.35783 34908 ft 530 kts 40°
2026-05-05 03:30 38.11964 -113.29415 34903 ft 530 kts 40°
2026-05-05 03:30 38.17406 -113.23086 34897 ft 531 kts 40°
2026-05-05 03:31 38.22892 -113.16737 34890 ft 532 kts 40°
2026-05-05 03:31 38.28263 -113.10542 34885 ft 532 kts 39°
2026-05-05 03:32 38.33742 -113.04232 34883 ft 533 kts 39°
2026-05-05 03:32 38.39071 -112.97598 34880 ft 534 kts 47°
2026-05-05 03:33 38.43803 -112.90273 34880 ft 536 kts 50°
2026-05-05 03:33 38.48481 -112.82833 34881 ft 537 kts 50°
2026-05-05 03:34 38.53153 -112.75407 34884 ft 537 kts 50°
2026-05-05 03:34 38.57733 -112.68158 34887 ft 537 kts 50°
2026-05-05 03:35 38.62436 -112.60741 34890 ft 538 kts 50°
2026-05-05 03:35 38.67164 -112.53307 34894 ft 537 kts 50°
2026-05-05 03:36 38.71885 -112.45888 34891 ft 537 kts 50°
2026-05-05 03:36 38.76602 -112.38477 34890 ft 536 kts 50°
2026-05-05 03:37 38.81297 -112.31095 34889 ft 535 kts 50°
2026-05-05 03:37 38.85986 -112.23712 34888 ft 534 kts 50°
2026-05-05 03:38 38.90558 -112.16499 34886 ft 532 kts 50°
2026-05-05 03:38 38.95239 -112.09094 34869 ft 530 kts 50°
2026-05-05 03:39 38.99831 -112.01816 34870 ft 527 kts 50°
2026-05-05 03:39 39.04412 -111.94509 34866 ft 514 kts 49°
2026-05-05 03:40 39.08888 -111.87339 34861 ft 512 kts 49°
2026-05-05 03:40 39.13267 -111.80378 34862 ft 511 kts 49°
2026-05-05 03:41 39.17828 -111.73131 34862 ft 511 kts 49°
2026-05-05 03:41 39.22295 -111.66012 34872 ft 511 kts 49°
2026-05-05 03:42 39.26749 -111.58899 34882 ft 512 kts 49°
2026-05-05 03:42 39.31255 -111.51671 34895 ft 512 kts 49°
2026-05-05 03:43 39.35710 -111.44507 34899 ft 512 kts 49°
2026-05-05 03:43 39.40176 -111.37302 34899 ft 513 kts 49°
2026-05-05 03:44 39.44562 -111.30210 34896 ft 514 kts 49°
2026-05-05 03:44 39.49057 -111.22928 34902 ft 514 kts 49°
2026-05-05 03:45 39.53509 -111.15694 34907 ft 515 kts 49°
2026-05-05 03:45 39.57980 -111.08413 34913 ft 515 kts 49°
2026-05-05 03:46 39.62446 -111.01125 34918 ft 517 kts 49°
2026-05-05 03:46 39.66887 -110.93843 34923 ft 517 kts 49°
2026-05-05 03:47 39.71337 -110.86540 34927 ft 517 kts 49°
2026-05-05 03:47 39.75821 -110.79170 34924 ft 518 kts 49°
2026-05-05 03:48 39.80301 -110.71798 34924 ft 518 kts 49°
2026-05-05 03:48 39.84727 -110.64495 34919 ft 518 kts 49°
2026-05-05 03:49 39.89193 -110.57121 34916 ft 518 kts 49°
2026-05-05 03:49 39.93687 -110.49671 34904 ft 518 kts 49°
2026-05-05 03:50 39.98090 -110.42362 34903 ft 517 kts 49°
2026-05-05 03:50 40.01836 -110.36119 34897 ft 515 kts 49°
2026-05-05 03:51 40.06265 -110.28724 34900 ft 515 kts 49°
2026-05-05 03:51 40.10654 -110.21375 34896 ft 516 kts 49°
2026-05-05 03:52 40.15057 -110.13985 34896 ft 516 kts 49°
2026-05-05 03:52 40.19557 -110.06615 34891 ft 515 kts 48°
2026-05-05 03:53 40.24114 -109.99387 34886 ft 515 kts 47°
2026-05-05 03:53 40.26320 -109.95903 34881 ft 501 kts 47°
2026-05-05 03:53 40.28591 -109.92293 34881 ft 497 kts 46°
2026-05-05 03:54 40.33003 -109.85401 34875 ft 496 kts 46°
2026-05-05 03:54 40.37485 -109.78474 34870 ft 496 kts 46°
2026-05-05 03:55 40.41922 -109.71633 34865 ft 496 kts 46°
2026-05-05 03:55 40.46284 -109.64907 34862 ft 497 kts 46°
2026-05-05 03:56 40.50783 -109.57964 34860 ft 497 kts 46°
2026-05-05 03:56 40.55241 -109.51080 34860 ft 496 kts 46°
2026-05-05 03:57 40.59743 -109.44117 34863 ft 497 kts 46°
2026-05-05 03:57 40.64200 -109.37208 34865 ft 497 kts 46°
2026-05-05 03:58 40.68585 -109.30400 34870 ft 497 kts 46°
2026-05-05 03:58 40.73080 -109.23407 34874 ft 498 kts 46°
2026-05-05 03:59 40.77552 -109.16436 34879 ft 498 kts 46°
2026-05-05 03:59 40.81851 -109.09721 34884 ft 498 kts 46°
2026-05-05 04:00 40.86334 -109.02703 34885 ft 498 kts 46°
2026-05-05 04:00 40.90824 -108.95657 34887 ft 498 kts 46°
2026-05-05 04:01 40.95300 -108.88620 34890 ft 498 kts 46°
2026-05-05 04:01 40.99746 -108.81614 34893 ft 498 kts 46°
2026-05-05 04:02 41.04197 -108.74585 34899 ft 498 kts 46°
2026-05-05 04:02 41.08650 -108.67523 34912 ft 498 kts 46°
2026-05-05 04:03 41.13103 -108.60458 34913 ft 497 kts 46°
2026-05-05 04:03 41.17528 -108.53421 34919 ft 495 kts 46°
2026-05-05 04:04 41.21910 -108.46441 34921 ft 495 kts 46°
2026-05-05 04:04 41.26329 -108.39376 34923 ft 493 kts 46°
2026-05-05 04:05 41.30706 -108.32368 34924 ft 492 kts 46°
2026-05-05 04:05 41.35093 -108.25337 34927 ft 491 kts 46°
2026-05-05 04:06 41.39412 -108.18392 34929 ft 489 kts 46°
2026-05-05 04:06 41.43756 -108.11385 34932 ft 488 kts 46°
2026-05-05 04:07 41.48058 -108.04431 34935 ft 487 kts 46°
2026-05-05 04:07 41.52392 -107.97412 34939 ft 485 kts 46°
2026-05-05 04:08 41.56632 -107.90498 34952 ft 484 kts 46°
2026-05-05 04:08 41.60890 -107.83572 34965 ft 484 kts 46°
2026-05-05 04:09 41.65156 -107.76622 34970 ft 484 kts 46°
2026-05-05 04:09 41.69440 -107.69622 34971 ft 484 kts 46°
2026-05-05 04:10 41.73655 -107.62567 34965 ft 486 kts 52°
2026-05-05 04:10 41.76640 -107.54352 34969 ft 494 kts 70°
2026-05-05 04:11 41.78097 -107.45532 34971 ft 497 kts 77°
2026-05-05 04:11 41.79457 -107.36436 34969 ft 499 kts 77°
2026-05-05 04:12 41.80825 -107.27332 34969 ft 500 kts 77°
2026-05-05 04:12 41.82217 -107.18175 34969 ft 501 kts 77°
2026-05-05 04:13 41.83628 -107.08983 34969 ft 503 kts 77°
2026-05-05 04:13 41.85050 -106.99792 34967 ft 503 kts 77°
2026-05-05 04:14 41.86477 -106.90590 34971 ft 504 kts 77°
2026-05-05 04:14 41.87896 -106.81460 34971 ft 505 kts 77°
2026-05-05 04:15 41.89352 -106.72078 34978 ft 505 kts 77°
2026-05-05 04:15 41.90770 -106.62931 34982 ft 505 kts 77°
2026-05-05 04:16 41.92199 -106.53673 34983 ft 505 kts 77°
2026-05-05 04:16 41.93621 -106.44428 34984 ft 504 kts 77°
2026-05-05 04:17 41.94806 -106.36703 34988 ft 504 kts 77°
2026-05-05 04:17 41.96209 -106.27508 34990 ft 503 kts 77°
2026-05-05 04:18 41.97607 -106.18295 34992 ft 502 kts 77°
2026-05-05 04:18 41.98998 -106.09078 34994 ft 502 kts 77°
2026-05-05 04:19 42.00381 -105.99843 34995 ft 502 kts 78°
2026-05-05 04:19 42.01277 -105.90533 34996 ft 508 kts 82°
2026-05-05 04:20 42.02004 -105.81022 34997 ft 508 kts 81°
2026-05-05 04:20 42.02792 -105.71649 34998 ft 508 kts 81°
2026-05-05 04:21 42.03616 -105.62149 35000 ft 509 kts 81°
2026-05-05 04:21 42.04458 -105.52704 35002 ft 509 kts 81°
2026-05-05 04:22 42.05299 -105.43227 35003 ft 510 kts 81°
2026-05-05 04:22 42.06133 -105.33746 35006 ft 511 kts 81°
2026-05-05 04:23 42.06972 -105.24226 35008 ft 511 kts 81°
2026-05-05 04:23 42.07791 -105.14900 35008 ft 511 kts 81°
2026-05-05 04:24 42.08623 -105.05183 35008 ft 513 kts 81°
2026-05-05 04:25 42.09858 -104.90863 35009 ft 514 kts 81°
2026-05-05 04:25 42.10694 -104.81247 35009 ft 514 kts 81°
2026-05-05 04:26 42.11523 -104.71692 35009 ft 515 kts 82°
2026-05-05 04:26 42.12346 -104.62108 35009 ft 516 kts 82°
2026-05-05 04:27 42.13172 -104.52452 35009 ft 517 kts 82°
2026-05-05 04:27 42.13999 -104.42831 35009 ft 517 kts 82°
2026-05-05 04:28 42.14814 -104.33246 35009 ft 518 kts 82°
2026-05-05 04:28 42.15572 -104.24263 35009 ft 518 kts 82°
2026-05-05 04:29 42.16381 -104.14563 35009 ft 519 kts 82°
2026-05-05 04:29 42.17184 -104.04925 35008 ft 519 kts 82°
2026-05-05 04:30 42.17962 -103.95287 35006 ft 515 kts 82°
2026-05-05 04:30 42.18647 -103.85628 35004 ft 515 kts 81°
2026-05-05 04:31 42.19406 -103.76050 35002 ft 514 kts 81°
2026-05-05 04:31 42.20199 -103.66397 34999 ft 515 kts 81°
2026-05-05 04:32 42.20975 -103.56836 34997 ft 515 kts 81°
2026-05-05 04:32 42.21747 -103.47175 34986 ft 514 kts 81°
2026-05-05 04:33 42.22503 -103.37602 34985 ft 515 kts 81°
2026-05-05 04:33 42.23246 -103.28009 34983 ft 515 kts 82°
2026-05-05 04:34 42.23983 -103.18349 34981 ft 515 kts 82°
2026-05-05 04:34 42.24705 -103.08757 34979 ft 515 kts 82°
2026-05-05 04:35 42.25415 -102.99117 34978 ft 516 kts 82°
2026-05-05 04:35 42.26117 -102.89447 34976 ft 515 kts 82°
2026-05-05 04:36 42.26815 -102.79784 34975 ft 516 kts 82°
2026-05-05 04:36 42.27506 -102.70098 34973 ft 516 kts 83°
2026-05-05 04:37 42.28190 -102.60455 34973 ft 516 kts 83°
2026-05-05 04:37 42.28864 -102.50761 34973 ft 517 kts 83°
2026-05-05 04:38 42.29530 -102.41125 34974 ft 517 kts 83°
2026-05-05 04:38 42.30185 -102.31398 34975 ft 516 kts 83°
2026-05-05 04:39 42.30829 -102.21708 34975 ft 516 kts 83°
2026-05-05 04:39 42.31459 -102.12070 34972 ft 517 kts 83°
2026-05-05 04:40 42.32080 -102.02460 34971 ft 517 kts 83°
2026-05-05 04:40 42.32688 -101.92741 34970 ft 517 kts 83°
2026-05-05 04:41 42.33267 -101.83064 34970 ft 517 kts 83°
2026-05-05 04:41 42.33882 -101.73335 34971 ft 517 kts 83°
2026-05-05 04:42 42.34492 -101.63672 34972 ft 517 kts 83°
2026-05-05 04:42 42.35090 -101.53992 34968 ft 518 kts 83°
2026-05-05 04:43 42.35585 -101.45877 34966 ft 517 kts 83°
2026-05-05 04:43 42.36270 -101.34601 34966 ft 517 kts 84°
2026-05-05 04:44 42.36741 -101.26498 34966 ft 517 kts 84°
2026-05-05 04:44 42.37294 -101.16795 34965 ft 518 kts 84°
2026-05-05 04:45 42.37846 -101.07032 34964 ft 518 kts 84°
2026-05-05 04:45 42.38389 -100.97340 34964 ft 518 kts 84°
2026-05-05 04:46 42.38934 -100.87634 34963 ft 519 kts 84°
2026-05-05 04:46 42.39473 -100.77857 34963 ft 518 kts 84°
2026-05-05 04:47 42.39991 -100.68161 34962 ft 518 kts 84°
2026-05-05 04:47 42.40501 -100.58383 34960 ft 518 kts 84°
2026-05-05 04:48 42.40998 -100.48698 34958 ft 518 kts 85°
2026-05-05 04:48 42.41492 -100.38922 34956 ft 518 kts 85°
2026-05-05 04:49 42.41974 -100.29214 34954 ft 518 kts 85°
2026-05-05 04:49 42.42449 -100.19510 34952 ft 518 kts 85°
2026-05-05 04:50 42.42921 -100.09746 34950 ft 518 kts 85°
2026-05-05 04:50 42.43392 -99.99968 34950 ft 518 kts 85°
2026-05-05 04:51 42.43844 -99.90194 34950 ft 525 kts 85°
2026-05-05 04:51 42.44292 -99.80320 34949 ft 526 kts 85°
2026-05-05 04:52 42.44731 -99.70459 34948 ft 526 kts 85°
2026-05-05 04:52 42.45165 -99.60532 34947 ft 526 kts 85°
2026-05-05 04:53 42.45589 -99.50663 34943 ft 526 kts 85°
2026-05-05 04:53 42.46009 -99.40729 34940 ft 525 kts 85°
2026-05-05 04:54 42.46416 -99.30853 34938 ft 526 kts 86°
2026-05-05 04:54 42.46816 -99.20988 34936 ft 525 kts 86°
2026-05-05 04:55 42.47207 -99.11134 34933 ft 525 kts 86°
2026-05-05 04:55 42.47592 -99.01210 34931 ft 524 kts 86°
2026-05-05 04:56 42.47967 -98.91319 34930 ft 524 kts 86°
2026-05-05 04:56 42.48332 -98.81471 34929 ft 524 kts 86°
2026-05-05 04:57 42.48689 -98.71580 34929 ft 523 kts 86°
2026-05-05 04:57 42.48883 -98.61745 34929 ft 523 kts 89°
2026-05-05 04:58 42.48917 -98.51839 34929 ft 523 kts 89°
2026-05-05 04:58 42.49033 -98.42017 34928 ft 522 kts 88°
2026-05-05 04:59 42.49230 -98.32185 34928 ft 522 kts 87°
2026-05-05 04:59 42.49490 -98.22395 34925 ft 521 kts 86°
2026-05-05 05:00 42.49799 -98.12536 34923 ft 521 kts 86°
2026-05-05 05:00 42.50135 -98.02756 34921 ft 521 kts 86°
2026-05-05 05:01 42.50488 -97.92945 34916 ft 526 kts 86°
2026-05-05 05:01 42.50848 -97.83008 34912 ft 530 kts 86°
2026-05-05 05:02 42.51221 -97.73024 34910 ft 530 kts 86°
2026-05-05 05:02 42.51597 -97.62997 34909 ft 529 kts 86°
2026-05-05 05:03 42.51968 -97.53056 34909 ft 529 kts 86°
2026-05-05 05:03 42.52338 -97.42993 34908 ft 528 kts 86°
2026-05-05 05:04 42.52699 -97.32986 34903 ft 529 kts 86°
2026-05-05 05:04 42.53051 -97.23078 34901 ft 528 kts 86°
2026-05-05 05:05 42.53396 -97.13086 34901 ft 527 kts 86°
2026-05-05 05:05 42.53722 -97.03157 34900 ft 527 kts 86°
2026-05-05 05:06 42.54049 -96.93199 34898 ft 527 kts 86°
2026-05-05 05:06 42.54370 -96.83304 34894 ft 526 kts 86°
2026-05-05 05:07 42.54621 -96.73409 34891 ft 525 kts 88°
2026-05-05 05:07 42.54574 -96.63467 34888 ft 524 kts 90°
2026-05-05 05:08 42.54492 -96.53589 34884 ft 524 kts 90°
2026-05-05 05:08 42.54428 -96.43707 34881 ft 524 kts 89°
2026-05-05 05:09 42.54389 -96.35367 34879 ft 523 kts 89°
2026-05-05 05:09 42.54346 -96.25525 34877 ft 523 kts 89°
2026-05-05 05:10 42.54317 -96.15676 34875 ft 523 kts 89°
2026-05-05 05:10 42.54295 -96.05763 34873 ft 523 kts 89°
2026-05-05 05:11 42.54278 -95.95925 34873 ft 525 kts 89°
2026-05-05 05:11 42.54286 -95.85904 34872 ft 529 kts 89°
2026-05-05 05:12 42.54261 -95.75970 34872 ft 529 kts 90°
2026-05-05 05:12 42.54219 -95.65931 34872 ft 529 kts 90°
2026-05-05 05:13 42.54165 -95.55965 34871 ft 529 kts 90°
2026-05-05 05:13 42.54095 -95.45968 34867 ft 528 kts 90°
2026-05-05 05:14 42.54031 -95.36024 34864 ft 527 kts 90°
2026-05-05 05:14 42.53964 -95.26115 34861 ft 526 kts 90°
2026-05-05 05:15 42.53891 -95.16207 34859 ft 525 kts 90°
2026-05-05 05:15 42.53799 -95.06267 34860 ft 525 kts 90°
2026-05-05 05:16 42.53706 -94.96258 34860 ft 524 kts 90°
2026-05-05 05:16 42.53611 -94.86432 34860 ft 523 kts 90°
2026-05-05 05:17 42.53500 -94.76562 34860 ft 522 kts 90°
2026-05-05 05:17 42.53385 -94.66680 34853 ft 521 kts 90°
2026-05-05 05:18 42.53265 -94.56878 34849 ft 521 kts 90°
2026-05-05 05:18 42.53131 -94.47097 34847 ft 519 kts 90°
2026-05-05 05:19 42.52989 -94.37235 34846 ft 519 kts 90°
2026-05-05 05:19 42.52845 -94.27506 34847 ft 518 kts 90°
2026-05-05 05:20 42.52691 -94.17685 34848 ft 518 kts 90°
2026-05-05 05:20 42.52523 -94.07864 34848 ft 518 kts 90°
2026-05-05 05:21 42.52349 -93.98089 34840 ft 518 kts 90°
2026-05-05 05:21 42.52220 -93.88288 34830 ft 522 kts 91°
2026-05-05 05:22 42.52053 -93.78409 34826 ft 521 kts 91°
2026-05-05 05:22 42.51847 -93.68615 34826 ft 521 kts 92°
2026-05-05 05:23 42.51628 -93.58824 34829 ft 520 kts 92°
2026-05-05 05:23 42.51401 -93.48995 34832 ft 519 kts 92°
2026-05-05 05:24 42.51169 -93.39187 34835 ft 517 kts 92°
2026-05-05 05:24 42.50933 -93.29476 34837 ft 516 kts 92°
2026-05-05 05:25 42.50690 -93.19724 34838 ft 515 kts 92°
2026-05-05 05:25 42.50441 -93.10049 34836 ft 514 kts 92°
2026-05-05 05:26 42.50186 -93.00409 34833 ft 512 kts 92°
2026-05-05 05:26 42.49925 -92.90796 34829 ft 510 kts 92°
2026-05-05 05:27 42.49654 -92.81121 34819 ft 509 kts 92°
2026-05-05 05:27 42.49233 -92.66831 34811 ft 507 kts 92°
2026-05-05 05:28 42.48943 -92.57310 34805 ft 505 kts 92°
2026-05-05 05:28 42.48650 -92.47782 34801 ft 505 kts 92°
2026-05-05 05:29 42.48352 -92.38325 34799 ft 503 kts 92°
2026-05-05 05:29 42.48046 -92.28825 34799 ft 502 kts 92°
2026-05-05 05:30 42.47734 -92.19409 34798 ft 501 kts 92°
2026-05-05 05:30 42.47406 -92.09944 34798 ft 500 kts 92°
2026-05-05 05:31 42.47076 -92.00563 34798 ft 500 kts 92°
2026-05-05 05:31 42.46793 -91.91139 34799 ft 507 kts 93°
2026-05-05 05:32 42.46485 -91.81544 34798 ft 511 kts 94°
2026-05-05 05:32 42.46120 -91.71945 34796 ft 510 kts 95°
2026-05-05 05:33 42.45739 -91.62320 34790 ft 509 kts 95°
2026-05-05 05:33 42.45350 -91.52782 34785 ft 507 kts 95°
2026-05-05 05:34 42.44962 -91.43265 34781 ft 505 kts 95°
2026-05-05 05:34 42.44633 -91.35324 34774 ft 504 kts 95°
2026-05-05 05:35 42.44234 -91.25807 34769 ft 503 kts 95°
2026-05-05 05:35 42.43837 -91.16450 34766 ft 501 kts 95°
2026-05-05 05:36 42.43432 -91.07068 34757 ft 499 kts 95°
2026-05-05 05:36 42.43016 -90.97604 34753 ft 497 kts 95°
2026-05-05 05:37 42.42599 -90.88321 34750 ft 495 kts 96°
2026-05-05 05:37 42.42171 -90.78961 34749 ft 494 kts 96°
2026-05-05 05:38 42.41749 -90.69746 34747 ft 491 kts 95°
2026-05-05 05:38 42.41677 -90.60512 34748 ft 491 kts 91°
2026-05-05 05:39 42.41817 -90.51238 34746 ft 490 kts 90°
2026-05-05 05:39 42.42054 -90.42088 34742 ft 488 kts 89°
2026-05-05 05:40 42.42352 -90.32879 34736 ft 487 kts 89°
2026-05-05 05:40 42.42680 -90.23663 34807 ft 486 kts 89°
2026-05-05 05:41 42.42852 -90.19054 34982 ft 486 kts 89°
2026-05-05 05:41 42.43026 -90.14498 35166 ft 486 kts 88°
2026-05-05 05:41 42.43202 -90.09921 35345 ft 485 kts 88°
2026-05-05 05:41 42.43379 -90.05359 35496 ft 486 kts 88°
2026-05-05 05:42 42.43560 -90.00740 35658 ft 486 kts 88°
2026-05-05 05:42 42.43739 -89.96192 35782 ft 487 kts 88°
2026-05-05 05:42 42.44120 -89.86983 35933 ft 492 kts 88°
2026-05-05 05:43 42.44509 -89.77652 36101 ft 497 kts 88°
2026-05-05 05:43 42.44706 -89.72920 36250 ft 497 kts 88°
2026-05-05 05:43 42.44897 -89.68255 36413 ft 496 kts 88°
2026-05-05 05:44 42.45085 -89.63595 36589 ft 495 kts 88°
2026-05-05 05:44 42.45271 -89.58967 36676 ft 494 kts 88°
2026-05-05 05:44 42.45643 -89.49610 36702 ft 494 kts 88°
2026-05-05 05:45 42.46007 -89.40289 36702 ft 493 kts 88°
2026-05-05 05:45 42.46362 -89.31047 36700 ft 492 kts 89°
2026-05-05 05:46 42.46714 -89.21798 36696 ft 492 kts 89°
2026-05-05 05:46 42.47059 -89.12542 36692 ft 491 kts 89°
2026-05-05 05:47 42.47391 -89.03316 36687 ft 490 kts 89°
2026-05-05 05:47 42.47720 -88.94098 36684 ft 489 kts 89°
2026-05-05 05:48 42.48056 -88.84902 36684 ft 488 kts 89°
2026-05-05 05:48 42.48378 -88.75715 36685 ft 487 kts 89°
2026-05-05 05:49 42.48683 -88.66542 36684 ft 487 kts 89°
2026-05-05 05:49 42.48980 -88.57354 36681 ft 486 kts 89°
2026-05-05 05:50 42.49268 -88.48224 36680 ft 485 kts 89°
2026-05-05 05:50 42.49551 -88.39055 36674 ft 485 kts 89°
2026-05-05 05:51 42.49827 -88.29945 36671 ft 484 kts 89°
2026-05-05 05:51 42.50093 -88.20852 36662 ft 484 kts 89°
2026-05-05 05:52 42.50356 -88.11703 36654 ft 484 kts 89°
2026-05-05 05:52 42.50608 -88.02618 36648 ft 483 kts 89°
2026-05-05 05:53 42.50700 -87.93531 36644 ft 486 kts 93°
2026-05-05 05:53 42.50568 -87.84255 36640 ft 491 kts 94°
2026-05-05 05:54 42.50425 -87.74967 36637 ft 491 kts 94°
2026-05-05 05:54 42.50299 -87.65733 36636 ft 490 kts 94°
2026-05-05 05:55 42.50199 -87.56500 36638 ft 490 kts 93°
2026-05-05 05:55 42.50123 -87.47272 36641 ft 490 kts 93°
2026-05-05 05:56 42.50055 -87.38016 36642 ft 489 kts 93°
2026-05-05 05:56 42.49995 -87.28755 36644 ft 488 kts 93°
2026-05-05 05:57 42.49935 -87.19574 36642 ft 488 kts 93°
2026-05-05 05:57 42.49885 -87.11945 36639 ft 487 kts 93°
2026-05-05 05:58 42.49825 -87.02768 36639 ft 487 kts 93°
2026-05-05 05:58 42.49762 -86.93571 36643 ft 486 kts 93°
2026-05-05 05:59 42.49692 -86.84390 36643 ft 486 kts 93°
2026-05-05 05:59 42.49615 -86.75262 36649 ft 485 kts 93°
2026-05-05 06:00 42.49530 -86.66021 36649 ft 484 kts 93°
2026-05-05 06:00 42.49443 -86.56928 36652 ft 483 kts 92°
2026-05-05 06:01 42.49354 -86.47798 36651 ft 482 kts 92°
2026-05-05 06:01 42.49260 -86.38705 36649 ft 482 kts 92°
2026-05-05 06:02 42.49153 -86.29643 36647 ft 481 kts 92°
2026-05-05 06:02 42.49043 -86.20601 36647 ft 481 kts 92°
2026-05-05 06:03 42.48927 -86.11542 36647 ft 480 kts 93°
2026-05-05 06:03 42.48803 -86.02492 36647 ft 479 kts 93°
2026-05-05 06:04 42.48697 -85.93363 36645 ft 484 kts 93°
2026-05-05 06:04 42.48603 -85.84185 36645 ft 491 kts 94°
2026-05-05 06:05 42.48455 -85.74894 36644 ft 490 kts 94°
2026-05-05 06:05 42.48287 -85.65745 36643 ft 490 kts 95°
2026-05-05 06:06 42.48109 -85.56495 36643 ft 489 kts 95°
2026-05-05 06:06 42.47928 -85.47304 36639 ft 488 kts 95°
2026-05-05 06:07 42.47741 -85.38117 36636 ft 487 kts 95°
2026-05-05 06:07 42.47542 -85.28925 36635 ft 486 kts 95°
2026-05-05 06:08 42.47336 -85.19783 36634 ft 484 kts 94°
2026-05-05 06:08 42.47030 -85.10634 36631 ft 484 kts 94°
2026-05-05 06:09 42.46794 -85.01540 36626 ft 483 kts 92°
2026-05-05 06:09 42.46609 -84.92420 36620 ft 482 kts 92°
2026-05-05 06:10 42.46418 -84.83366 36615 ft 481 kts 92°
2026-05-05 06:10 42.46215 -84.74285 36614 ft 479 kts 92°
2026-05-05 06:11 42.46001 -84.65283 36617 ft 478 kts 92°
2026-05-05 06:11 42.45775 -84.56229 36620 ft 478 kts 92°
2026-05-05 06:12 42.45540 -84.47249 36621 ft 476 kts 92°
2026-05-05 06:12 42.45293 -84.38251 36622 ft 475 kts 92°
2026-05-05 06:13 42.45039 -84.29324 36622 ft 475 kts 92°
2026-05-05 06:13 42.44778 -84.20356 36622 ft 474 kts 92°
2026-05-05 06:14 42.44510 -84.11430 36622 ft 474 kts 92°
2026-05-05 06:14 42.44236 -84.02549 36622 ft 473 kts 92°
2026-05-05 06:15 42.43959 -83.93588 36621 ft 478 kts 93°
2026-05-05 06:15 42.43674 -83.84457 36623 ft 486 kts 93°
2026-05-05 06:16 42.43368 -83.75311 36622 ft 487 kts 93°
2026-05-05 06:16 42.43050 -83.66124 36624 ft 486 kts 93°
2026-05-05 06:17 42.42727 -83.57000 36625 ft 486 kts 94°
2026-05-05 06:17 42.42394 -83.47815 36625 ft 486 kts 94°
2026-05-05 06:18 42.42054 -83.38722 36623 ft 485 kts 94°
2026-05-05 06:18 42.41708 -83.29621 36613 ft 485 kts 94°
2026-05-05 06:19 42.41356 -83.20480 36606 ft 484 kts 94°
2026-05-05 06:19 42.41004 -83.11459 36603 ft 483 kts 94°
2026-05-05 06:20 42.40641 -83.02356 36600 ft 482 kts 94°
2026-05-05 06:20 42.40272 -82.93311 36599 ft 482 kts 94°
2026-05-05 06:21 42.39897 -82.84274 36602 ft 481 kts 94°
2026-05-05 06:21 42.39514 -82.75205 36611 ft 481 kts 94°
2026-05-05 06:22 42.39161 -82.67721 36613 ft 480 kts 96°
2026-05-05 06:22 42.38502 -82.58673 36613 ft 479 kts 96°
2026-05-05 06:23 42.37884 -82.49760 36613 ft 478 kts 96°
2026-05-05 06:23 42.37337 -82.40767 36610 ft 478 kts 95°
2026-05-05 06:24 42.36843 -82.31801 36609 ft 477 kts 95°
2026-05-05 06:24 42.36381 -82.22804 36617 ft 477 kts 94°
2026-05-05 06:25 42.35946 -82.13851 36614 ft 477 kts 94°
2026-05-05 06:25 42.35522 -82.04816 36609 ft 476 kts 94°
2026-05-05 06:26 42.35108 -81.95889 36610 ft 479 kts 94°
2026-05-05 06:26 42.34676 -81.86878 36622 ft 482 kts 94°
2026-05-05 06:27 42.34057 -81.73233 36630 ft 482 kts 93°
2026-05-05 06:28 42.33654 -81.64208 36633 ft 481 kts 93°
2026-05-05 06:28 42.33238 -81.55178 36633 ft 481 kts 94°
2026-05-05 06:29 42.32761 -81.46131 36635 ft 480 kts 94°
2026-05-05 06:29 42.32278 -81.37149 36644 ft 480 kts 94°
2026-05-05 06:30 42.31812 -81.28180 36648 ft 479 kts 94°
2026-05-05 06:30 42.31351 -81.19157 36651 ft 479 kts 94°
2026-05-05 06:31 42.30893 -81.10192 36658 ft 478 kts 94°
2026-05-05 06:31 42.30436 -81.01257 36663 ft 477 kts 94°
2026-05-05 06:32 42.29975 -80.92318 36665 ft 477 kts 94°
2026-05-05 06:32 42.29516 -80.83390 36667 ft 477 kts 94°
2026-05-05 06:33 42.29051 -80.74424 36670 ft 476 kts 94°
2026-05-05 06:33 42.28537 -80.65520 36676 ft 475 kts 94°
2026-05-05 06:34 42.28018 -80.56672 36681 ft 475 kts 94°
2026-05-05 06:34 42.27495 -80.47673 36682 ft 475 kts 94°
2026-05-05 06:35 42.26983 -80.38799 36684 ft 474 kts 94°
2026-05-05 06:35 42.26472 -80.29947 36685 ft 473 kts 94°
2026-05-05 06:36 42.25963 -80.21159 36686 ft 473 kts 94°
2026-05-05 06:36 42.25444 -80.12233 36691 ft 473 kts 94°
2026-05-05 06:37 42.24925 -80.03389 36693 ft 473 kts 94°
2026-05-05 06:37 42.24389 -79.94561 36696 ft 476 kts 94°
2026-05-05 06:38 42.23827 -79.85620 36699 ft 479 kts 94°
2026-05-05 06:38 42.23287 -79.76622 36705 ft 479 kts 94°
2026-05-05 06:39 42.22747 -79.67656 36712 ft 479 kts 94°
2026-05-05 06:39 42.22200 -79.58687 36720 ft 478 kts 94°
2026-05-05 06:40 42.21643 -79.49739 36727 ft 478 kts 94°
2026-05-05 06:40 42.21076 -79.40821 36735 ft 478 kts 94°
2026-05-05 06:41 42.20503 -79.31842 36742 ft 477 kts 94°
2026-05-05 06:41 42.19931 -79.22945 36746 ft 477 kts 94°
2026-05-05 06:42 42.19349 -79.14053 36747 ft 476 kts 94°
2026-05-05 06:42 42.17957 -79.05308 36751 ft 476 kts 110°
2026-05-05 06:43 42.15671 -78.96946 36750 ft 476 kts 110°
2026-05-05 06:43 42.13433 -78.88574 36755 ft 475 kts 110°
2026-05-05 06:44 42.11226 -78.80186 36770 ft 475 kts 110°
2026-05-05 06:44 42.09035 -78.71767 36776 ft 474 kts 110°
2026-05-05 06:45 42.06870 -78.63383 36779 ft 474 kts 109°
2026-05-05 06:45 42.04703 -78.54948 36780 ft 474 kts 109°
2026-05-05 06:46 42.02557 -78.46583 36781 ft 474 kts 109°
2026-05-05 06:46 42.00408 -78.38233 36780 ft 474 kts 109°
2026-05-05 06:47 41.98268 -78.29878 36784 ft 473 kts 109°
2026-05-05 06:47 41.96116 -78.21476 36785 ft 473 kts 109°
2026-05-05 06:48 41.93979 -78.13141 36787 ft 473 kts 109°
2026-05-05 06:48 41.91841 -78.04824 36787 ft 473 kts 109°
2026-05-05 06:49 41.89682 -77.96447 36788 ft 473 kts 109°
2026-05-05 06:49 41.87529 -77.88120 36789 ft 473 kts 109°
2026-05-05 06:50 41.85345 -77.79829 36788 ft 472 kts 110°
2026-05-05 06:50 41.83473 -77.72897 36788 ft 473 kts 110°
2026-05-05 06:51 41.81244 -77.64630 36790 ft 473 kts 110°
2026-05-05 06:51 41.79026 -77.56362 36793 ft 472 kts 110°
2026-05-05 06:52 41.76798 -77.48099 36794 ft 472 kts 110°
2026-05-05 06:52 41.74560 -77.39796 36795 ft 472 kts 110°
2026-05-05 06:53 41.72339 -77.31549 36796 ft 472 kts 110°
2026-05-05 06:53 41.70124 -77.23302 36797 ft 471 kts 110°
2026-05-05 06:54 41.67899 -77.15019 36798 ft 471 kts 110°
2026-05-05 06:54 41.65669 -77.06806 36800 ft 471 kts 110°
2026-05-05 06:55 41.63428 -76.98581 36798 ft 470 kts 110°
2026-05-05 06:55 41.61203 -76.90405 36801 ft 470 kts 110°
2026-05-05 06:56 41.58968 -76.82193 36808 ft 470 kts 110°
2026-05-05 06:56 41.56739 -76.74011 36811 ft 470 kts 110°
2026-05-05 06:57 41.54490 -76.65762 36817 ft 470 kts 110°
2026-05-05 06:57 41.52250 -76.57589 36824 ft 470 kts 110°
2026-05-05 06:58 41.49971 -76.49389 36829 ft 470 kts 110°
2026-05-05 06:58 41.47695 -76.41228 36835 ft 469 kts 110°
2026-05-05 06:59 41.45431 -76.33090 36568 ft 469 kts 110°
2026-05-05 06:59 41.44278 -76.28958 36315 ft 470 kts 110°
2026-05-05 06:59 41.43134 -76.24864 36064 ft 471 kts 110°
2026-05-05 06:59 41.41991 -76.20785 35814 ft 471 kts 110°
2026-05-05 07:00 41.40846 -76.16700 35564 ft 471 kts 109°
2026-05-05 07:00 41.39706 -76.12631 35315 ft 471 kts 109°
2026-05-05 07:00 41.38560 -76.08544 35064 ft 471 kts 109°
2026-05-05 07:00 41.37420 -76.04483 34615 ft 469 kts 109°
2026-05-05 07:01 41.36271 -76.00398 33982 ft 467 kts 109°
2026-05-05 07:01 41.35116 -75.96324 33323 ft 466 kts 109°
2026-05-05 07:01 41.33985 -75.92317 32727 ft 464 kts 109°
2026-05-05 07:01 41.32870 -75.88309 32109 ft 462 kts 109°
2026-05-05 07:02 41.31763 -75.84312 31448 ft 460 kts 109°
2026-05-05 07:02 41.30664 -75.80329 30779 ft 459 kts 109°
2026-05-05 07:02 41.29563 -75.76342 30117 ft 457 kts 109°
2026-05-05 07:02 41.28469 -75.72390 29441 ft 455 kts 109°
2026-05-05 07:03 41.27371 -75.68464 28802 ft 452 kts 110°
2026-05-05 07:03 41.26163 -75.64592 28168 ft 450 kts 113°
2026-05-05 07:03 41.24894 -75.60812 27535 ft 447 kts 114°
2026-05-05 07:03 41.23621 -75.57069 26919 ft 444 kts 114°
2026-05-05 07:04 41.22333 -75.53299 26287 ft 441 kts 115°
2026-05-05 07:04 41.21087 -75.49661 25689 ft 439 kts 115°
2026-05-05 07:04 41.19809 -75.45931 25078 ft 436 kts 115°
2026-05-05 07:04 41.18566 -75.42294 24452 ft 434 kts 115°
2026-05-05 07:05 41.17310 -75.38616 23844 ft 431 kts 115°
2026-05-05 07:05 41.16087 -75.35025 23265 ft 428 kts 115°
2026-05-05 07:05 41.14867 -75.31449 22930 ft 419 kts 115°
2026-05-05 07:05 41.13666 -75.27947 22755 ft 408 kts 115°
2026-05-05 07:06 41.12487 -75.24530 22632 ft 407 kts 115°
2026-05-05 07:06 41.11314 -75.21125 22507 ft 406 kts 115°
2026-05-05 07:06 41.10147 -75.17726 22382 ft 406 kts 115°
2026-05-05 07:06 41.08994 -75.14357 22258 ft 405 kts 115°
2026-05-05 07:07 41.07822 -75.10929 22131 ft 404 kts 115°
2026-05-05 07:07 41.06661 -75.07529 22006 ft 404 kts 115°
2026-05-05 07:07 41.05515 -75.04187 21883 ft 403 kts 115°
2026-05-05 07:07 41.04346 -75.00775 21757 ft 402 kts 115°
2026-05-05 07:08 41.03195 -74.97414 21634 ft 401 kts 115°
2026-05-05 07:08 41.02040 -74.94038 21508 ft 400 kts 115°
2026-05-05 07:08 41.00890 -74.90674 21385 ft 399 kts 115°
2026-05-05 07:08 40.99742 -74.87321 21263 ft 399 kts 115°
2026-05-05 07:09 40.98874 -74.83906 21141 ft 398 kts 102°
2026-05-05 07:09 40.98405 -74.80312 21021 ft 397 kts 98°
2026-05-05 07:09 40.98052 -74.76698 20898 ft 396 kts 96°
2026-05-05 07:09 40.97714 -74.73083 20776 ft 395 kts 96°
2026-05-05 07:10 40.97364 -74.69459 20654 ft 394 kts 97°
2026-05-05 07:10 40.97004 -74.65866 20534 ft 394 kts 97°
2026-05-05 07:10 40.96688 -74.62842 20434 ft 393 kts 97°
2026-05-05 07:10 40.96288 -74.59156 20311 ft 393 kts 97°
2026-05-05 07:11 40.95967 -74.56263 20216 ft 392 kts 98°
2026-05-05 07:11 40.95736 -74.54212 20148 ft 392 kts 98°
2026-05-05 07:11 40.95377 -74.51068 20043 ft 391 kts 98°
2026-05-05 07:11 40.94963 -74.47491 19925 ft 390 kts 98°
2026-05-05 07:12 40.94557 -74.44003 19808 ft 389 kts 98°
2026-05-05 07:12 40.94137 -74.40434 19687 ft 388 kts 98°
2026-05-05 07:12 40.93721 -74.36916 19570 ft 388 kts 98°
2026-05-05 07:12 40.93297 -74.33355 19450 ft 387 kts 98°
2026-05-05 07:13 40.92881 -74.29849 19332 ft 387 kts 98°
2026-05-05 07:13 40.92457 -74.26306 19213 ft 386 kts 98°
2026-05-05 07:13 40.92033 -74.22797 19093 ft 385 kts 98°
2026-05-05 07:13 40.91612 -74.19310 18973 ft 382 kts 98°
2026-05-05 07:14 40.91195 -74.15916 18912 ft 367 kts 100°
2026-05-05 07:14 40.90478 -74.12680 18886 ft 362 kts 116°
2026-05-05 07:14 40.89022 -74.10007 18887 ft 358 kts 139°
2026-05-05 07:14 40.87028 -74.08170 18472 ft 348 kts 159°
2026-05-05 07:15 40.84802 -74.07057 18004 ft 344 kts 166°
2026-05-05 07:15 40.82527 -74.06054 17620 ft 339 kts 166°
2026-05-05 07:15 40.80313 -74.05070 17190 ft 336 kts 166°
2026-05-05 07:15 40.78092 -74.04080 16747 ft 333 kts 166°
2026-05-05 07:16 40.75890 -74.03101 16287 ft 332 kts 166°
2026-05-05 07:16 40.74419 -74.02448 15975 ft 331 kts 166°
2026-05-05 07:16 40.72256 -74.01489 15528 ft 328 kts 166°
2026-05-05 07:16 40.69372 -74.00215 14936 ft 325 kts 166°
2026-05-05 07:17 40.67925 -73.99576 14634 ft 324 kts 166°
2026-05-05 07:17 40.65806 -73.98636 14249 ft 319 kts 166°
2026-05-05 07:17 40.63717 -73.97712 13810 ft 317 kts 166°
2026-05-05 07:17 40.61630 -73.96791 13355 ft 315 kts 166°
2026-05-05 07:18 40.59559 -73.95881 12902 ft 313 kts 166°
2026-05-05 07:18 40.57497 -73.94977 12454 ft 311 kts 166°
2026-05-05 07:18 40.55451 -73.94083 12016 ft 309 kts 166°
2026-05-05 07:18 40.53405 -73.93193 11578 ft 307 kts 166°
2026-05-05 07:19 40.51386 -73.92316 11193 ft 304 kts 166°
2026-05-05 07:19 40.49380 -73.91445 11048 ft 303 kts 166°
2026-05-05 07:19 40.47363 -73.90571 11011 ft 302 kts 166°
2026-05-05 07:19 40.45365 -73.89709 11003 ft 302 kts 166°
2026-05-05 07:20 40.43489 -73.88439 10995 ft 308 kts 145°
2026-05-05 07:20 40.42102 -73.86314 10795 ft 309 kts 123°
2026-05-05 07:20 40.41153 -73.83779 10316 ft 311 kts 116°
2026-05-05 07:20 40.40267 -73.81203 9867 ft 310 kts 116°
2026-05-05 07:21 40.39387 -73.78648 9451 ft 307 kts 116°
2026-05-05 07:21 40.38505 -73.76074 9036 ft 304 kts 116°
2026-05-05 07:21 40.37647 -73.73555 8621 ft 302 kts 116°
2026-05-05 07:21 40.36885 -73.70998 8213 ft 301 kts 105°
2026-05-05 07:22 40.36812 -73.68288 7810 ft 300 kts 81°
2026-05-05 07:22 40.37564 -73.65772 7339 ft 298 kts 56°
2026-05-05 07:22 40.39008 -73.63872 6843 ft 294 kts 32°
2026-05-05 07:22 40.40790 -73.62520 6437 ft 290 kts 26°
2026-05-05 07:23 40.42535 -73.61262 6029 ft 288 kts 26°
2026-05-05 07:23 40.44281 -73.59998 5598 ft 286 kts 26°
2026-05-05 07:23 40.46026 -73.58740 5146 ft 286 kts 26°
2026-05-05 07:23 40.47780 -73.57485 4692 ft 286 kts 26°
2026-05-05 07:24 40.49523 -73.56247 4243 ft 286 kts 26°
2026-05-05 07:24 40.51277 -73.55014 3794 ft 286 kts 26°
2026-05-05 07:24 40.53036 -73.53787 3347 ft 286 kts 26°
2026-05-05 07:24 40.54804 -73.52564 3087 ft 289 kts 26°
2026-05-05 07:25 40.56580 -73.51343 3019 ft 289 kts 26°
2026-05-05 07:25 40.58426 -73.50282 2992 ft 282 kts 12°
2026-05-05 07:25 40.60290 -73.50185 2947 ft 258 kts 349°
2026-05-05 07:25 40.62013 -73.50551 2820 ft 246 kts 346°
2026-05-05 07:26 40.63657 -73.50893 2777 ft 231 kts 346°
2026-05-05 07:26 40.65215 -73.51203 2934 ft 219 kts 346°
2026-05-05 07:26 40.66688 -73.51475 2976 ft 209 kts 346°
2026-05-05 07:26 40.68125 -73.51742 2990 ft 208 kts 342°
2026-05-05 07:27 40.69396 -73.52549 2870 ft 198 kts 311°
2026-05-05 07:27 40.70193 -73.53951 2538 ft 187 kts 295°
2026-05-05 07:27 40.70887 -73.55375 2266 ft 183 kts 296°
2026-05-05 07:27 40.71581 -73.56789 2058 ft 185 kts 296°
2026-05-05 07:28 40.72280 -73.58236 2008 ft 184 kts 296°
2026-05-05 07:28 40.72958 -73.59640 2019 ft 183 kts 296°
2026-05-05 07:28 40.73638 -73.61049 2002 ft 183 kts 296°
2026-05-05 07:28 40.74325 -73.62488 1992 ft 183 kts 296°
2026-05-05 07:29 40.75005 -73.63904 1991 ft 183 kts 293°
2026-05-05 07:29 40.75238 -73.65464 1979 ft 172 kts 257°
2026-05-05 07:29 40.74696 -73.66798 2009 ft 165 kts 229°
2026-05-05 07:29 40.73883 -73.67855 1990 ft 164 kts 220°
2026-05-05 07:30 40.72969 -73.68748 1951 ft 163 kts 215°
2026-05-05 07:30 40.71286 -73.70160 1521 ft 135 kts 212°
2026-05-05 07:30 40.70469 -73.70810 1342 ft 136 kts 211°
2026-05-05 07:31 40.69657 -73.71451 1165 ft 136 kts 211°
2026-05-05 07:31 40.68842 -73.72092 993 ft 137 kts 211°
2026-05-05 07:31 40.68033 -73.72727 822 ft 138 kts 211°
2026-05-05 07:31 40.67199 -73.73382 642 ft 138 kts 211°
2026-05-05 07:32 40.66383 -73.74023 468 ft 139 kts 211°
2026-05-05 07:32 40.65544 -73.74681 284 ft 139 kts 211°
2026-05-05 07:32 40.64711 -73.75334 104 ft 139 kts 211°
2026-05-05 07:32 40.63931 -73.75943 28 ft 111 kts 212°
2026-05-05 07:33 40.63422 -73.76347 28 ft 59 kts 211°
2026-05-05 07:33 40.63186 -73.76534 28 ft 31 kts 211°
2026-05-05 07:33 40.63041 -73.76674 28 ft 23 kts 224°
2026-05-05 07:33 40.62961 -73.76819 28 ft 17 kts 240°
2026-05-05 07:34 40.62926 -73.76940 28 ft 12 kts 273°
2026-05-05 07:34 40.62963 -73.77047 28 ft 19 kts 301°
2026-05-05 07:34 40.63044 -73.77224 28 ft 22 kts 301°
2026-05-05 07:34 40.63121 -73.77394 28 ft 20 kts 301°
2026-05-05 07:35 40.63190 -73.77545 28 ft 18 kts 301°
2026-05-05 07:35 40.63247 -73.77671 28 ft 15 kts 301°
2026-05-05 07:35 40.63294 -73.77775 28 ft 12 kts 301°
2026-05-05 07:35 40.63349 -73.77827 28 ft 9 kts 14°
2026-05-05 07:36 40.63429 -73.77769 28 ft 19 kts 31°
2026-05-05 07:36 40.63551 -73.77674 28 ft 21 kts 31°
2026-05-05 07:36 40.63673 -73.77579 28 ft 19 kts 31°
2026-05-05 07:36 40.63794 -73.77482 28 ft 20 kts 31°
2026-05-05 07:37 40.63910 -73.77393 28 ft 18 kts 31°
2026-05-05 07:37 40.64020 -73.77306 28 ft 20 kts 31°
2026-05-05 07:37 40.64135 -73.77216 28 ft 19 kts 31°
2026-05-05 07:37 40.64251 -73.77125 28 ft 20 kts 31°
2026-05-05 07:38 40.64369 -73.77033 28 ft 19 kts 31°
2026-05-05 07:38 40.64487 -73.76988 28 ft 17 kts
2026-05-05 07:38 40.64609 -73.76986 28 ft 18 kts 359°
2026-05-05 07:38 40.64726 -73.77033 28 ft 19 kts 325°
2026-05-05 07:39 40.64803 -73.77158 28 ft 16 kts 300°
2026-05-05 07:39 40.64848 -73.77277 28 ft 13 kts 267°
2026-05-05 07:39 40.64796 -73.77341 28 ft 12 kts 210°
2026-05-05 07:39 40.64743 -73.77397 28 ft 7 kts 258°
2026-05-05 07:40 40.64757 -73.77456 28 ft 7 kts 301°
2026-05-05 07:40 40.64789 -73.77523 28 ft 11 kts 300°
2026-05-05 07:40 40.64827 -73.77609 28 ft 10 kts 301°
2026-05-05 07:40 40.64824 -73.77664 28 ft 2 kts 192°
2026-05-05 07:41 40.64799 -73.77669 28 ft 4 kts 195°
2026-05-05 07:41 40.64776 -73.77678 28 ft 2 kts 198°
2026-05-05 07:41 40.64762 -73.77684 28 ft 2 kts 198°
2026-05-05 07:41 40.64752 -73.77689 28 ft 0 kts 198°
2026-05-05 07:42 40.64751 -73.77689 28 ft 0 kts 198°